Location: Boissi�res
(45.2500°N, 2.3667°E)
Time: 23:58:36
(UTC+00:00)

SJ 16-02 - Pass Details

Date: 03 March 2021
Orbit: 605 x 617 km, 75.0° (Epoch: 18 April)

Event Time Altitude Azimuth Distance (km) Brightness Sun altitude
Rises 19:34:27 0° 348° (NNW) 2,883 5.1 -20.7°
Reaches altitude 10° 19:36:57 10° 0° (N) 1,976 4.1 -21.2°
Enters shadow 19:39:28 25° 30° (NNE) 1,262 2.8 -21.6°
